Lapse_Rate
6.7 6.6 6.6 6.5 6.6 6.9 7.6 8.1 8.1 7.9 8.0 7.9 8.1 8.3 8.2 8.0 8.0 8.1 8.1 8.2 8.2 7.9 7.8 7.7 7.7 7.7 7.3 7.1 6.9 6.8 6.9 6.6 6.4 6.4 6.4 6.4 6.4 6.5 6.3 5.9 5.9 5.9 5.8 5.6 5.5 5.4 5.3 5.4 5.6
6.7 6.6 6.5 6.6 6.5 6.8 7.9 8.1 7.9 7.7 7.8 7.4 7.8 8.5 8.4 8.2 8.3 8.6 8.4 8.3 8.3 8.1 7.9 7.7 7.4 7.7 7.6 7.6 7.5 7.2 7.0 7.0 6.8 6.6 6.6 6.6 6.5 6.4 6.5 6.4 6.3 6.3 6.1 6.0 5.8 5.6 5.5 5.6 5.6
6.5 6.6 6.3 6.4 6.7 7.2 8.0 8.2 7.8 7.9 7.8 7.5 7.6 7.8 8.1 8.4 8.3 8.4 8.4 8.3 7.9 7.7 7.8 7.6 7.6 7.6 7.6 7.8 7.7 7.5 7.4 7.2 7.1 7.0 6.7 6.6 6.5 6.5 6.6 6.6 6.6 6.4 6.4 6.3 6.1 6.0 6.0 6.0 6.1
6.6 6.4 6.0 6.1 7.1 7.9 8.2 8.2 8.2 8.2 7.9 7.9 7.7 7.9 8.2 8.3 8.2 8.2 8.1 7.8 7.6 7.4 7.6 7.6 7.6 7.5 7.6 7.7 7.4 7.5 7.5 7.5 7.5 7.1 6.9 6.7 6.7 6.7 6.7 6.8 6.8 6.6 6.5 6.5 6.3 6.4 6.4 6.4 6.3
6.5 6.3 5.9 5.9 6.9 7.9 8.3 8.0 7.9 8.2 8.4 8.0 7.8 8.0 8.1 8.2 8.1 7.9 7.8 7.5 7.2 7.4 7.5 7.6 7.7 7.9 7.8 7.7 7.5 7.4 7.4 7.5 7.7 7.4 7.1 7.1 7.0 6.9 6.8 6.8 6.8 6.8 6.6 6.6 6.5 6.7 6.6 6.6 6.6
6.6 6.1 5.9 6.0 7.0 8.2 8.0 8.3 7.8 7.9 8.0 8.0 7.9 7.8 7.9 8.1 7.9 7.6 7.4 7.7 7.7 7.4 7.3 7.4 7.8 7.9 7.8 7.7 7.7 7.5 7.5 7.7 7.6 7.5 7.3 7.4 7.4 7.1 7.1 7.0 7.0 6.9 6.8 6.7 6.7 6.9 7.0 7.0 6.9
6.6 6.5 6.3 6.4 7.3 7.7 8.0 8.0 7.9 7.7 7.9 7.8 7.5 7.7 7.8 7.8 7.8 7.6 7.5 7.4 7.3 7.0 7.2 7.5 7.7 7.7 7.8 7.6 7.5 7.8 7.6 7.8 7.8 7.7 7.5 7.5 7.5 7.3 7.2 7.2 7.2 7.1 6.9 6.8 6.7 7.0 7.2 7.1 7.1
6.6 6.4 6.2 6.5 7.1 7.9 7.9 7.9 8.2 7.9 8.0 7.7 7.6 7.6 7.7 7.7 7.7 7.6 7.5 7.3 7.3 7.2 7.5 7.9 7.8 7.8 7.8 7.8 7.9 7.9 7.8 7.7 7.8 7.7 7.6 7.9 7.9 7.6 7.3 7.3 7.4 7.1 7.1 6.9 6.9 7.0 7.1 7.1 7.1
6.6 6.1 6.4 6.8 7.1 8.0 8.2 8.0 7.9 8.0 7.9 7.7 7.4 7.6 7.4 7.7 7.8 7.8 7.7 7.6 7.7 7.8 7.8 7.8 8.0 8.2 8.1 8.1 8.2 8.2 8.5 8.3 8.1 8.2 7.9 7.8 8.1 7.9 7.7 7.4 7.4 7.2 7.1 7.0 7.0 7.3 7.3 7.2 7.1
6.6 6.1 6.6 7.4 7.6 8.1 8.4 8.1 8.2 8.2 8.2 7.8 7.8 7.6 7.6 7.6 7.5 7.9 7.9 7.9 7.9 8.0 8.3 8.3 8.1 8.2 8.3 8.3 8.3 8.3 8.7 8.6 8.7 8.7 8.4 7.8 7.9 8.0 7.8 7.6 7.3 7.2 7.2 7.1 7.2 7.5 7.5 7.3 7.1
7.0 6.6 7.2 7.6 7.5 7.9 8.0 7.9 8.2 8.3 8.1 8.4 8.3 8.2 7.8 8.0 8.0 8.1 8.0 7.8 7.9 8.0 8.0 8.5 8.4 8.5 8.5 8.5 8.3 8.3 8.7 8.7 8.7 8.7 8.6 8.1 7.9 7.9 7.8 7.5 7.4 7.3 7.2 7.2 7.4 7.5 7.7 7.4 7.1
7.0 7.2 7.3 7.6 7.6 7.7 8.0 8.0 7.9 8.1 8.0 8.6 8.5 8.3 8.3 8.1 7.9 7.9 8.0 8.1 8.0 8.2 8.5 8.6 8.5 8.4 8.4 8.5 8.3 8.4 8.8 9.0 8.7 8.8 8.7 8.3 8.0 7.8 8.0 7.7 7.5 7.4 7.2 7.3 7.4 7.5 7.6 7.4 7.0
7.1 7.2 7.3 7.6 7.8 7.9 7.8 8.0 7.7 7.7 7.9 8.2 8.3 8.1 8.2 7.9 8.2 8.0 8.2 8.4 8.4 8.3 8.6 8.4 8.6 8.5 8.3 8.3 8.4 8.5 8.7 9.0 8.8 8.7 8.7 8.2 7.9 7.9 8.0 7.9 7.7 7.8 7.5 7.3 7.4 7.4 7.4 7.3 7.0
7.3 7.2 7.0 7.1 7.6 7.6 7.6 7.8 7.8 7.6 8.1 8.0 7.9 7.9 7.9 8.0 8.3 8.4 8.3 8.4 8.5 8.5 8.3 8.3 8.2 8.1 8.3 8.3 8.6 8.5 8.5 8.9 8.8 8.7 8.9 8.6 8.0 7.9 8.1 8.1 8.1 7.9 7.6 7.5 7.3 7.3 7.1 7.2 7.1
6.8 6.6 6.6 6.7 7.0 7.1 7.2 7.1 7.1 7.7 8.1 7.8 8.0 8.1 8.2 8.4 8.4 8.4 8.3 8.2 8.3 8.1 7.8 8.0 8.1 7.7 8.2 8.0 8.5 8.4 8.7 8.6 8.7 9.0 9.1 8.7 8.0 7.9 8.1 8.1 8.1 8.1 7.5 7.7 7.1 6.9 6.9 7.0 7.0
6.0 6.4 6.2 6.6 6.7 7.2 6.9 6.9 7.7 7.8 7.7 7.9 8.0 8.2 8.5 8.2 8.2 8.1 8.2 8.4 7.9 7.7 7.8 8.1 8.1 8.1 8.2 8.3 8.4 8.6 8.8 8.7 8.8 9.1 9.0 8.5 8.1 8.1 8.2 8.1 8.0 7.8 7.6 7.3 7.0 6.7 6.7 6.8 7.0
5.2 5.6 6.0 6.2 6.6 6.7 6.7 7.0 7.3 7.5 8.0 8.2 8.3 8.2 8.1 7.9 7.9 7.9 8.2 8.1 7.9 7.7 8.0 7.9 7.9 8.2 8.3 8.5 8.5 8.6 8.7 8.7 8.8 9.0 9.0 8.7 8.4 8.3 8.3 7.9 7.5 7.2 7.2 7.1 6.7 6.7 6.6 6.8 6.9
5.1 5.2 5.4 5.5 5.9 6.6 6.5 6.7 7.1 7.5 7.6 7.6 7.7 7.9 7.7 7.5 7.5 7.8 7.9 7.9 7.8 7.9 7.8 7.9 8.0 8.2 8.5 8.5 8.7 8.3 8.5 8.7 8.9 9.1 8.8 8.6 8.3 8.5 8.1 7.9 7.6 7.5 6.8 6.8 6.5 6.6 6.6 6.7 6.3
5.2 5.1 5.2 5.5 5.7 6.2 6.4 6.6 6.8 6.8 6.9 6.9 7.0 7.4 7.4 7.3 7.3 7.4 7.5 7.5 7.6 7.6 7.7 7.9 8.1 8.3 8.4 8.6 8.3 8.3 8.5 8.7 8.6 9.0 8.6 8.3 8.3 8.0 7.9 7.9 7.3 7.2 6.9 6.3 6.5 6.5 6.5 6.3 6.1
4.9 5.2 5.2 5.4 6.0 5.8 6.1 6.1 6.5 6.3 6.7 7.0 7.1 7.3 7.4 7.3 7.2 7.4 7.7 7.6 7.6 7.6 7.9 8.0 8.0 8.1 8.5 8.3 8.0 8.1 8.2 8.2 8.5 8.6 8.4 8.3 8.2 7.8 7.6 7.5 7.7 7.1 6.7 6.5 6.5 6.4 6.2 6.1 6.1
4.7 4.8 4.8 4.9 5.6 5.7 5.6 5.6 6.0 6.4 6.4 6.9 7.0 7.0 7.1 7.2 7.2 7.4 7.6 7.6 7.6 7.8 7.9 8.0 7.9 8.0 7.9 7.9 8.1 8.1 8.2 8.2 8.1 8.3 8.3 8.1 7.9 7.5 7.3 7.3 7.0 6.6 6.6 6.6 6.3 6.1 6.1 6.0 6.1
4.8 4.8 4.8 4.9 5.2 5.3 5.8 4.4 5.1 6.2 6.5 6.7 6.8 7.1 7.3 7.3 7.5 7.7 7.6 7.5 7.6 7.7 7.7 7.6 7.7 7.9 8.0 7.9 8.1 8.1 8.2 8.0 8.1 8.1 8.1 8.0 7.6 7.2 7.2 7.1 6.8 6.8 6.7 6.4 6.2 6.0 6.1 6.2 6.3
4.6 4.9 4.8 4.8 5.1 5.2 5.2 5.3 4.8 6.1 6.7 6.8 7.1 7.3 7.3 7.9 7.7 7.7 7.8 7.7 7.7 7.6 7.6 7.5 7.8 7.9 7.9 7.9 8.1 8.2 8.3 8.3 8.3 8.3 8.2 8.1 7.6 7.2 7.2 7.0 6.8 6.8 6.5 6.1 6.0 6.1 6.1 6.3 6.2
5.9 5.5 5.4 5.6 5.3 4.6 4.8 5.3 5.2 5.7 6.6 7.1 7.3 7.8 8.1 7.8 7.6 7.7 7.7 7.3 7.3 7.6 7.7 7.8 7.7 7.9 8.1 7.9 8.1 8.2 8.4 8.4 8.4 8.2 8.1 7.8 7.5 7.2 6.9 6.7 6.8 6.5 6.0 5.9 5.9 6.0 6.0 6.1 6.2
6.6 6.3 5.1 5.3 4.6 4.1 5.4 5.2 5.3 6.1 5.9 6.9 7.3 7.6 7.7 7.4 7.6 7.5 7.2 7.4 7.6 7.8 7.7 7.7 7.9 8.2 8.0 7.9 8.1 8.4 8.5 8.5 8.3 8.0 7.4 7.1 7.0 6.7 6.6 6.5 6.3 6.0 5.8 5.7 5.8 5.9 5.9 5.9 6.0
7.2 6.6 5.5 5.3 4.4 4.5 5.0 4.4 4.4 5.3 6.5 6.9 7.1 7.5 7.7 7.6 7.2 7.2 7.4 7.7 7.7 7.7 7.9 7.9 8.1 7.9 7.9 8.0 8.1 8.2 8.3 8.3 7.9 7.5 7.0 6.8 6.6 6.5 6.4 6.2 6.1 5.9 5.7 5.8 5.9 5.8 5.7 5.7 5.8
7.5 7.2 6.8 6.5 5.5 4.7 5.0 4.9 4.6 6.1 6.4 6.7 7.7 7.7 7.3 7.3 7.5 7.7 7.9 7.8 7.8 7.8 7.8 7.9 7.8 7.9 7.9 8.0 7.9 8.2 8.1 7.7 7.3 6.9 6.8 6.6 6.4 6.3 6.2 6.0 5.9 5.8 5.9 5.8 5.8 5.8 5.7 5.6 5.6
7.9 7.6 7.6 6.5 5.0 4.3 4.5 4.7 4.9 6.1 7.0 6.8 7.1 7.1 7.3 7.7 7.8 7.6 7.8 7.9 7.8 7.8 7.7 7.9 8.0 8.0 8.0 8.0 8.1 7.9 7.4 7.1 6.9 6.6 6.5 6.5 6.3 6.1 5.9 5.9 5.8 5.9 5.8 5.8 5.9 5.7 5.8 5.4 5.6
8.5 7.7 7.6 6.6 5.8 4.0 4.0 4.8 5.8 6.4 7.3 7.0 7.0 7.3 8.0 8.1 7.8 7.9 7.8 7.9 7.8 7.8 7.8 8.0 8.0 8.0 8.0 8.0 7.7 7.2 7.0 6.9 6.7 6.7 6.6 6.5 6.3 5.9 5.8 5.9 5.8 5.9 5.8 5.8 5.9 5.7 5.6 5.4 5.6
8.1 8.0 7.7 6.6 5.6 4.9 4.4 4.7 6.1 5.4 5.7 7.0 7.3 7.2 8.4 8.3 8.2 8.1 7.9 7.9 7.6 7.7 7.8 7.9 8.0 8.0 7.8 7.5 7.2 7.0 7.0 6.9 6.8 6.7 6.6 6.3 6.1 6.0 5.8 5.8 5.9 5.9 5.8 5.9 5.7 5.7 5.7 5.7 5.6
Wind_Speed
5 5 2 2 2 4 3 6 3 3 3 1 1 6 11 5 7 5 4 11 10 16 20 23 24 24 23 21 21 21 21 21 20 20 20 20 19 19 18 17 15 12 10 8 8 7 6 5 4
6 4 2 1 3 2 5 4 7 6 2 9 4 2 2 5 3 2 4 7 9 15 18 21 26 25 23 22 21 22 22 22 22 22 22 21 19 19 18 17 16 13 11 9 7 6 5 3 2
5 3 2 3 4 6 5 4 5 3 6 4 3 3 3 4 3 4 2 11 10 11 18 21 27 25 23 23 23 23 22 23 23 23 22 21 19 18 17 16 15 14 12 10 8 6 4 3 2
3 2 3 1 7 6 6 3 2 7 7 5 5 4 2 1 6 7 11 12 12 11 15 20 26 25 24 24 24 24 23 23 23 21 20 20 19 17 16 15 14 13 12 10 8 6 5 3 3
3 2 2 3 6 5 5 6 3 7 4 6 3 3 2 6 2 8 12 12 13 10 11 18 26 27 26 26 25 25 25 23 22 21 20 19 18 17 16 15 13 12 12 10 9 7 6 5 6
3 2 2 6 6 4 6 7 4 3 4 5 5 4 3 3 3 4 5 5 5 10 10 14 24 25 24 25 26 25 25 24 22 21 21 20 18 17 16 15 13 13 12 11 10 9 7 6 5
4 4 4 3 4 5 5 5 5 5 2 3 4 3 4 2 5 7 6 7 6 6 7 6 12 20 23 23 24 24 23 22 22 22 22 20 19 18 16 15 14 13 12 11 11 10 8 7 7
4 4 3 5 5 6 4 3 3 3 1 2 6 1 2 6 7 6 5 3 4 6 8 8 7 15 16 18 24 23 22 23 23 23 23 23 22 19 17 15 14 15 13 12 12 10 9 8 7
4 2 5 7 8 5 2 1 3 3 1 0 2 3 4 4 8 6 4 1 3 5 7 7 9 9 12 14 17 21 23 23 23 24 24 22 17 18 18 15 15 16 14 13 13 11 9 8 7
5 5 9 6 7 4 4 2 5 4 7 3 1 3 5 4 3 5 6 9 6 6 8 9 10 11 9 10 13 16 17 18 18 17 17 15 15 16 16 15 18 16 15 14 14 12 10 8 4
7 11 11 5 7 4 7 8 3 3 5 6 5 4 5 7 5 6 8 8 11 7 4 12 13 12 12 12 7 7 11 11 12 15 15 13 13 13 13 10 11 11 14 9 10 10 8 6 4
5 13 13 7 4 4 6 6 12 12 8 9 7 8 5 10 10 9 10 9 8 9 13 11 12 12 13 9 9 10 8 8 8 12 16 9 6 5 5 4 8 8 7 5 7 5 6 6 6
14 7 10 16 9 8 6 15 11 22 13 12 14 14 13 10 11 9 10 8 8 9 12 10 9 13 11 12 9 9 11 10 10 8 15 14 8 8 6 5 5 6 6 6 4 4 3 4 5
1 9 10 6 6 5 8 15 5 5 8 12 13 16 11 11 11 10 8 10 9 11 11 8 11 12 12 14 15 11 9 8 8 9 11 17 10 9 8 7 6 4 7 5 5 4 4 4 3
4 6 3 7 6 9 8 20 28 20 13 19 21 19 15 15 11 13 13 9 10 9 8 11 13 11 14 16 14 10 9 9 9 9 12 16 15 8 9 7 6 4 5 6 3 3 2 3 3
4 5 16 14 9 6 10 29 20 9 16 21 21 16 15 15 11 11 10 10 10 9 10 8 8 12 14 14 12 9 9 8 8 8 8 14 14 14 8 5 3 4 4 3 3 3 3 3 3
4 16 9 5 8 10 13 31 7 7 8 13 11 11 12 14 11 10 11 10 10 10 10 9 9 11 15 13 10 10 9 8 7 6 8 10 13 14 8 6 5 5 3 4 4 3 2 2 3
9 5 2 5 5 15 14 32 14 10 12 17 11 14 13 10 11 10 11 11 10 10 9 10 7 10 9 6 5 4 4 4 6 7 7 12 8 11 10 10 10 8 4 4 3 4 2 2 3
4 2 1 3 4 4 17 21 16 10 11 16 18 19 20 20 15 9 10 11 10 10 10 10 6 7 9 6 5 3 6 5 5 6 10 11 10 12 10 5 6 7 8 7 4 2 4 4 3
6 1 3 5 8 4 7 12 9 8 13 14 18 17 14 13 9 11 11 10 9 12 11 9 8 7 7 6 3 3 5 3 4 5 7 10 9 10 10 8 7 7 5 5 5 6 3 2 4
4 9 3 6 8 12 8 18 12 8 12 16 17 15 15 15 13 13 14 10 10 10 11 9 7 9 7 7 7 4 6 4 3 4 5 6 10 9 8 8 7 6 5 5 4 6 7 3 2
5 3 1 2 3 8 2 9 15 15 18 14 12 14 14 12 14 13 10 12 13 13 7 7 6 9 10 12 9 11 4 5 3 3 4 5 7 7 7 7 6 6 4 4 4 4 3 3 3
9 8 8 7 6 3 3 5 13 5 11 12 16 19 18 17 12 12 13 14 11 8 7 4 7 8 10 9 10 8 6 4 5 6 10 6 4 6 6 7 7 5 4 4 4 4 5 3 3
6 6 4 1 2 7 7 6 21 9 12 7 14 13 12 11 10 10 10 7 7 3 3 7 8 6 9 9 10 11 13 10 9 7 5 4 3 3 5 6 5 4 4 4 4 4 5 5 3
5 5 2 1 2 12 12 9 24 4 6 4 9 9 10 9 9 9 7 3 3 4 6 8 9 8 8 10 9 9 11 11 11 9 6 7 4 2 4 4 5 3 4 4 4 4 5 5 4
7 7 5 6 6 5 6 12 8 11 13 10 6 9 10 11 9 6 4 4 4 7 9 8 10 9 8 9 8 8 10 7 6 6 7 5 4 4 5 4 4 4 4 4 4 3 3 4 4
4 4 7 3 3 1 5 7 8 16 10 8 8 9 11 11 8 5 6 6 7 7 7 10 10 9 9 9 8 8 8 8 7 7 6 4 4 4 5 5 4 4 5 4 4 3 4 4 5
4 4 3 1 4 5 6 6 6 6 2 4 8 11 13 6 5 7 8 10 5 6 8 8 9 11 9 9 8 7 8 8 8 7 7 6 5 5 5 4 4 4 3 3 4 3 4 4 3
1 1 2 2 5 4 2 5 6 15 4 8 10 11 13 6 9 9 10 9 8 7 8 9 10 11 9 9 9 10 8 8 7 6 5 5 5 5 5 5 4 3 3 3 3 4 4 3 3
2 3 1 4 8 4 3 6 6 6 7 8 13 11 6 4 9 11 12 10 9 9 9 9 9 10 8 8 9 8 7 7 6 6 5 5 6 4 5 4 3 3 2 2 3 3 4 5 5
Wind_Direction
178 133 105 36 74 72 250 257 259 290 281 240 315 161 177 162 172 207 327 159 133 146 161 170 172 178 179 174 171 168 167 164 161 157 155 156 156 156 154 155 153 152 153 150 143 140 135 130 122
129 113 31 105 112 141 248 233 230 217 307 322 337 41 135 188 223 280 118 167 149 153 165 169 177 181 181 178 176 174 172 170 167 163 163 161 162 162 162 159 156 157 160 160 155 155 151 146 140
123 83 94 166 175 193 222 225 238 252 272 207 267 227 187 200 172 189 191 147 136 161 170 175 177 181 183 183 182 180 179 176 172 170 166 166 168 166 165 165 161 163 166 168 169 174 176 179 202
126 50 21 167 227 245 206 237 327 311 307 182 203 246 262 201 167 185 142 145 149 167 176 178 177 183 186 186 188 185 184 182 177 173 170 169 173 170 169 170 170 170 170 177 183 189 199 210 243
44 52 173 255 264 265 253 256 262 278 271 265 125 240 291 318 42 130 154 158 162 166 179 180 181 186 190 189 192 189 187 185 181 175 174 176 178 175 175 175 179 182 181 187 196 207 222 237 259
89 104 121 235 248 262 269 244 235 255 248 289 151 136 248 289 175 136 114 125 146 173 172 182 188 191 192 194 194 196 190 185 183 181 179 180 181 181 181 181 187 193 195 196 204 213 231 246 266
154 121 214 200 245 266 233 239 210 210 224 31 173 121 277 296 145 127 126 125 144 159 168 185 187 196 199 201 199 199 194 188 187 186 183 182 182 186 187 188 193 201 205 207 212 220 233 241 251
144 134 215 215 204 256 251 278 230 206 188 269 169 83 169 239 127 100 103 136 160 163 176 184 186 194 203 204 204 200 197 193 191 191 187 185 184 185 187 194 203 206 210 213 221 223 232 235 248
133 130 221 215 176 245 210 286 257 258 181 123 110 130 230 15 115 117 146 205 190 204 195 187 192 199 197 201 206 204 203 201 197 196 192 186 182 184 189 194 204 212 214 218 225 228 225 229 244
165 179 217 203 202 230 263 281 318 358 344 255 194 228 331 62 99 214 219 226 226 227 216 198 202 202 194 203 198 202 203 203 203 201 196 188 179 181 181 195 204 212 219 224 228 225 221 224 223
192 221 218 236 217 234 283 311 316 331 288 227 264 281 350 336 305 250 253 234 223 242 214 206 204 201 194 202 191 198 200 204 203 197 188 184 182 184 186 183 201 208 222 225 232 229 218 201 204
219 222 218 226 223 255 243 291 297 283 239 289 300 288 295 279 281 270 247 236 235 217 228 211 201 198 203 197 200 198 198 202 203 199 186 177 176 181 177 188 194 206 203 214 216 222 216 207 216
234 210 222 241 240 240 277 258 258 275 290 296 292 278 269 263 261 254 242 251 240 245 244 223 179 201 199 200 205 202 208 205 203 192 189 181 172 180 183 199 193 206 190 204 200 214 217 215 221
166 221 238 243 230 243 248 269 238 235 251 252 256 266 266 248 245 263 244 240 229 227 238 226 205 206 191 201 205 206 204 209 200 197 192 181 176 175 185 200 211 207 197 195 202 201 211 219 219
256 276 261 219 220 235 212 266 251 248 253 263 265 264 264 258 250 244 254 248 250 259 242 214 215 191 198 206 204 200 203 194 200 198 183 183 177 175 188 195 202 199 194 193 205 214 210 221 231
202 170 242 236 180 239 159 257 251 211 227 245 250 250 255 260 243 251 251 248 253 242 243 236 198 193 203 205 201 200 200 195 198 190 173 181 167 178 198 179 155 176 176 188 232 196 210 226 212
240 237 217 247 214 198 192 252 203 204 219 249 259 266 252 257 265 247 243 242 255 252 256 259 200 201 203 202 194 197 189 191 181 163 166 169 181 175 182 166 180 181 160 192 200 205 191 210 229
218 233 194 193 212 197 207 245 254 270 265 264 257 256 262 262 255 268 278 277 270 270 259 250 224 216 195 167 149 128 138 170 151 154 157 177 187 171 177 191 183 154 169 196 191 194 196 223 246
38 68 83 334 265 216 224 250 253 252 261 262 264 265 266 268 270 262 265 269 285 283 269 251 217 191 160 154 148 143 179 161 156 154 167 173 181 180 180 178 158 159 175 192 167 149 207 237 216
270 280 248 266 258 227 285 280 275 259 257 248 254 257 259 264 277 268 265 272 271 266 271 256 228 177 171 173 134 144 131 145 147 161 159 172 179 166 178 166 172 165 152 165 166 185 198 212 184
206 229 226 221 296 286 291 283 271 248 241 249 256 257 256 251 249 258 265 256 268 263 259 263 203 174 165 137 113 90 86 96 118 150 152 163 167 181 169 152 154 153 159 181 178 186 198 200 198
217 175 299 314 177 257 45 283 279 271 262 252 253 253 250 239 245 246 250 266 262 264 270 255 186 165 152 149 140 154 137 157 183 142 137 142 153 151 139 143 145 159 159 169 188 177 170 163 185
247 194 226 236 267 309 260 304 273 217 258 256 253 255 251 242 233 245 244 250 269 280 262 218 155 148 148 147 146 152 135 116 129 132 135 119 132 126 144 149 147 154 153 182 179 167 184 186 168
205 179 180 156 130 257 205 191 277 243 250 232 243 251 255 256 248 251 256 269 280 317 181 176 130 122 135 139 140 142 139 135 129 119 122 116 100 118 138 135 142 150 166 176 189 182 187 192 188
189 119 129 127 187 233 176 190 236 254 309 238 275 269 259 254 254 254 252 225 221 205 176 140 126 123 122 128 127 138 128 131 136 141 137 138 132 131 160 140 154 161 182 189 179 185 202 192 195
201 172 166 171 188 227 142 226 245 226 249 271 280 261 274 268 258 253 173 165 163 154 140 116 118 115 115 114 112 111 116 126 131 137 143 140 135 148 151 161 172 179 179 197 195 197 210 200 208
172 163 214 24 287 125 213 277 286 280 281 282 298 298 287 277 261 167 141 141 135 130 121 128 117 108 108 113 118 109 114 121 127 113 114 124 131 147 161 165 153 173 197 202 187 211 225 208 203
163 170 106 316 208 229 249 256 236 292 339 331 330 295 280 275 131 147 147 142 107 103 105 99 109 116 119 114 114 118 118 113 118 121 132 141 138 136 137 143 170 189 209 207 197 210 212 219 239
24 261 223 198 176 210 298 267 228 221 324 351 313 301 312 193 164 151 144 130 114 105 106 108 107 111 106 109 111 111 111 113 116 123 132 135 130 141 146 162 175 189 218 180 193 215 200 198 232
5 293 258 199 243 264 123 286 313 77 52 10 336 333 349 117 158 145 138 125 120 114 118 115 117 115 116 117 113 113 114 116 117 125 136 135 134 148 154 160 168 211 223 199 203 209 182 208 169